Temp
16 16 16 16 16 16 16 16 17 17 17 17 18 18 18 19 19 19 20 20 19 19 19 19 19 19 19 19 18 18 22 21 20 20 21 19 21 18 19 19 18 17 17 17 18
15 15 16 16 16 16 16 16 17 17 17 17 18 18 18 18 19 19 19 19 19 19 19 19 19 19 18 17 17 19 21 21 20 20 21 19 19 19 19 19 18 16 16 16 17
15 15 15 15 15 16 16 16 16 17 17 17 17 18 18 18 19 19 19 19 18 18 18 19 19 19 18 17 16 17 21 18 18 18 18 18 18 17 19 20 18 17 15 15 16
15 15 15 15 15 15 16 16 16 16 17 17 17 17 17 18 19 19 19 19 19 18 18 18 19 18 19 19 16 19 17 17 17 16 16 18 17 18 17 17 15 15 15 15 16
15 14 15 15 15 15 15 15 16 16 16 16 16 17 17 17 18 18 19 19 19 18 18 18 18 17 19 17 16 18 17 16 16 16 16 16 17 18 16 14 14 14 14 15 15
14 14 14 14 14 15 15 15 15 16 16 16 16 16 16 17 18 18 18 18 18 18 18 18 18 17 16 17 18 16 16 17 16 16 15 16 17 15 12 11 12 12 14 14 15
14 14 14 14 14 14 15 15 15 15 15 15 16 16 16 17 17 17 17 17 17 17 17 17 17 17 16 16 14 15 18 18 17 16 17 15 16 16 13 10 11 12 12 12 12
13 13 14 14 14 14 14 14 15 15 15 15 15 15 16 17 17 16 17 16 16 16 16 17 16 17 15 14 15 17 16 18 17 15 15 15 20 15 11 12 10 8 7 8 10
13 13 13 13 14 14 14 14 14 14 14 14 14 14 15 15 15 16 15 15 16 15 15 16 16 14 15 17 17 16 19 17 18 15 16 16 18 14 11 12 11 9 7 7 9
13 13 13 13 13 13 13 13 13 13 13 13 13 14 15 15 15 15 14 14 15 15 14 15 14 16 15 17 19 18 17 16 18 17 15 17 18 14 10 11 10 8 7 6 7
13 12 12 12 12 12 12 12 12 13 12 15 15 15 15 14 15 14 14 14 14 14 16 12 16 16 18 18 17 17 17 18 17 15 16 18 18 17 11 9 9 8 7 6 6
12 12 12 12 12 11 11 11 13 12 13 14 14 14 14 14 13 13 13 14 13 15 12 13 15 17 14 14 15 15 16 17 16 14 15 17 16 18 10 11 9 8 7 6 5
12 11 11 11 10 10 11 12 12 12 12 13 14 14 14 14 15 13 13 13 14 12 13 16 16 13 14 13 14 15 15 17 16 13 13 13 15 16 10 6 6 6 6 5 5
11 9 7 7 7 9 9 12 11 12 14 14 11 12 12 14 13 14 13 13 12 14 13 15 13 12 13 14 15 15 14 14 14 14 15 13 17 15 13 9 6 5 5 5 4
9 8 7 7 7 8 12 11 11 12 12 13 9 10 10 13 11 9 11 12 13 12 13 15 11 12 13 14 14 15 12 13 13 14 13 13 14 17 9 10 8 6 5 5 4
9 8 7 7 7 10 10 11 10 12 12 10 9 9 10 10 9 8 10 11 10 11 11 13 10 12 14 10 12 10 11 11 11 12 12 14 14 17 13 13 11 6 5 4 3
8 8 7 7 7 9 9 9 11 12 13 10 10 9 11 9 9 10 10 11 13 12 12 12 11 11 10 11 10 12 13 13 12 12 13 9 12 17 15 10 10 7 5 4 3
9 8 8 8 8 8 8 9 9 15 15 9 9 9 10 10 10 9 10 11 11 12 12 13 13 11 11 14 12 11 14 14 12 12 14 7 12 15 9 6 5 7 5 4 3
8 8 8 8 7 8 7 9 10 13 15 11 9 10 10 9 10 9 10 12 12 11 13 12 12 10 9 10 13 11 11 12 9 3 11 14 12 12 6 5 4 5 4 3 3
7 7 8 8 7 7 8 8 10 14 12 12 13 13 11 10 10 10 10 11 11 11 12 13 13 9 8 10 9 11 12 11 11 11 12 13 12 17 9 8 5 4 4 4 3
6 7 8 8 7 7 8 8 11 12 12 12 13 13 13 11 12 10 12 10 12 10 12 11 12 9 9 10 12 10 10 11 12 12 13 14 15 13 13 11 7 6 5 4 3
5 7 8 8 7 8 7 9 10 11 10 12 12 14 12 11 11 11 12 14 10 10 10 11 9 9 10 8 7 12 13 12 13 9 9 10 14 8 9 9 8 7 5 4 3
5 6 7 7 8 8 8 8 9 10 11 12 11 12 12 12 11 11 11 10 10 11 11 10 9 9 9 8 6 8 9 11 12 8 10 11 14 6 6 6 6 6 5 3 3
5 4 6 6 8 8 7 8 8 9 10 11 12 10 10 11 12 12 10 8 8 11 11 12 9 10 13 14 12 9 10 9 11 11 13 11 13 8 8 7 5 4 5 4 4
5 5 6 6 6 8 8 8 8 8 8 9 9 10 11 9 10 10 12 7 6 7 8 10 8 10 12 12 10 10 11 9 10 12 12 14 12 11 11 9 8 8 6 4 3
5 5 4 5 6 7 7 7 8 8 7 8 8 9 9 10 10 10 10 10 10 6 6 6 9 9 9 10 8 8 9 9 10 11 12 13 12 12 10 8 7 6 4 4 4
2 4 5 4 6 6 7 7 6 7 6 7 7 8 7 8 7 5 5 8 7 7 6 6 7 6 8 9 6 5 7 9 10 11 12 11 11 6 6 7 7 6 5 6 5
Height
1554 1554 1555 1555 1555 1556 1556 1556 1555 1555 1555 1555 1554 1554 1554 1553 1552 1552 1551 1552 1551 1551 1551 1552 1553 1553 1554 1553 1554 1554 1553 1556 1557 1558 1556 1560 1559 1561 1562 1562 1563 1563 1563 1562 1562
1552 1553 1554 1554 1555 1555 1555 1555 1555 1554 1554 1554 1553 1553 1552 1552 1551 1550 1550 1549 1549 1550 1551 1552 1552 1553 1554 1555 1555 1554 1552 1553 1555 1555 1555 1559 1560 1561 1562 1561 1563 1563 1562 1561 1561
1551 1552 1553 1554 1554 1554 1554 1554 1554 1554 1553 1553 1552 1552 1552 1551 1551 1549 1548 1548 1548 1549 1550 1551 1552 1552 1554 1555 1556 1555 1552 1556 1557 1558 1559 1559 1560 1560 1560 1560 1561 1563 1562 1561 1561
1549 1550 1551 1552 1552 1553 1553 1553 1553 1552 1552 1552 1551 1551 1551 1551 1552 1548 1548 1548 1549 1549 1551 1552 1553 1553 1553 1553 1555 1555 1556 1556 1557 1558 1559 1559 1559 1560 1561 1561 1559 1560 1560 1560 1560
1546 1547 1548 1550 1550 1551 1551 1551 1551 1551 1551 1550 1550 1550 1550 1550 1548 1547 1548 1548 1549 1550 1551 1552 1552 1553 1553 1554 1555 1554 1555 1556 1556 1557 1557 1558 1558 1558 1560 1559 1558 1559 1559 1559 1559
1543 1544 1545 1547 1548 1548 1549 1549 1549 1549 1549 1549 1548 1549 1549 1550 1545 1545 1546 1547 1548 1549 1550 1551 1552 1552 1553 1554 1555 1555 1555 1555 1555 1556 1555 1555 1556 1557 1559 1557 1558 1558 1558 1558 1558
1539 1540 1542 1543 1544 1545 1546 1546 1547 1547 1547 1547 1547 1546 1546 1545 1543 1544 1544 1545 1547 1548 1549 1550 1551 1552 1552 1555 1556 1556 1554 1552 1550 1553 1552 1554 1555 1553 1554 1556 1557 1557 1557 1557 1557
1535 1537 1538 1539 1540 1541 1543 1544 1544 1545 1545 1545 1544 1544 1542 1540 1540 1541 1543 1544 1545 1546 1548 1549 1550 1551 1553 1555 1556 1555 1555 1551 1547 1550 1551 1553 1544 1552 1554 1556 1557 1556 1556 1556 1555
1530 1532 1534 1535 1537 1538 1540 1541 1541 1542 1542 1542 1543 1543 1539 1535 1536 1538 1540 1542 1544 1545 1547 1548 1549 1551 1554 1553 1554 1554 1545 1551 1547 1548 1550 1551 1546 1552 1553 1554 1555 1555 1555 1555 1554
1524 1527 1529 1531 1532 1534 1536 1538 1538 1539 1539 1539 1539 1544 1535 1532 1532 1535 1538 1541 1542 1544 1547 1549 1550 1549 1552 1549 1547 1545 1551 1551 1546 1546 1549 1547 1542 1549 1551 1552 1553 1554 1554 1553 1553
1518 1521 1524 1526 1528 1531 1534 1536 1539 1537 1533 1530 1529 1529 1528 1530 1532 1533 1536 1539 1541 1544 1543 1547 1545 1542 1536 1540 1543 1544 1545 1543 1545 1548 1549 1542 1540 1542 1548 1549 1550 1551 1552 1552 1552
1512 1515 1519 1521 1523 1526 1529 1531 1530 1530 1528 1524 1525 1526 1527 1527 1529 1530 1534 1538 1539 1538 1543 1548 1539 1534 1541 1544 1545 1547 1546 1543 1545 1549 1550 1542 1541 1537 1545 1544 1546 1548 1549 1550 1551
1506 1509 1513 1516 1518 1520 1524 1527 1528 1529 1528 1518 1517 1517 1520 1524 1523 1524 1529 1531 1533 1537 1536 1531 1530 1534 1538 1544 1546 1544 1543 1539 1542 1549 1550 1548 1535 1530 1539 1542 1544 1545 1546 1547 1548
1499 1504 1508 1511 1517 1516 1517 1524 1526 1530 1524 1509 1509 1507 1511 1517 1519 1520 1523 1527 1531 1529 1535 1532 1532 1534 1537 1537 1537 1538 1540 1543 1546 1548 1542 1547 1525 1523 1528 1535 1540 1542 1543 1544 1546
1491 1497 1501 1503 1505 1509 1516 1520 1525 1529 1532 1498 1502 1503 1504 1510 1510 1515 1519 1522 1523 1526 1530 1522 1530 1531 1531 1528 1534 1532 1540 1542 1544 1543 1547 1543 1541 1509 1531 1527 1532 1538 1541 1544 1547
1483 1487 1494 1498 1498 1506 1512 1517 1524 1530 1507 1495 1498 1500 1504 1507 1510 1514 1518 1520 1522 1526 1528 1524 1528 1529 1524 1531 1532 1540 1544 1548 1549 1546 1541 1528 1534 1503 1514 1511 1519 1533 1538 1540 1543
1473 1478 1483 1486 1488 1502 1509 1514 1521 1507 1481 1489 1492 1495 1496 1502 1508 1509 1513 1514 1513 1522 1522 1525 1523 1524 1525 1529 1536 1534 1536 1543 1547 1546 1529 1536 1533 1494 1501 1509 1511 1518 1526 1533 1538
1461 1467 1470 1473 1484 1495 1502 1508 1502 1452 1467 1484 1488 1493 1492 1497 1502 1506 1509 1509 1511 1511 1514 1515 1515 1515 1516 1512 1519 1529 1522 1525 1534 1531 1516 1544 1518 1497 1505 1509 1511 1514 1521 1527 1532
1453 1452 1455 1463 1473 1482 1489 1485 1464 1452 1454 1474 1489 1489 1490 1493 1493 1501 1501 1498 1497 1502 1502 1508 1507 1510 1511 1513 1514 1525 1526 1522 1538 1561 1528 1504 1505 1499 1508 1511 1514 1516 1521 1523 1526
1444 1444 1443 1452 1462 1469 1469 1462 1450 1448 1455 1461 1462 1466 1474 1483 1487 1491 1493 1485 1491 1490 1491 1494 1501 1510 1512 1512 1515 1512 1511 1527 1525 1524 1515 1501 1502 1477 1499 1499 1509 1513 1515 1519 1524
1438 1436 1432 1442 1449 1451 1444 1440 1445 1447 1451 1455 1453 1457 1460 1469 1471 1476 1470 1478 1480 1484 1489 1494 1499 1511 1511 1504 1495 1509 1509 1509 1503 1505 1500 1494 1480 1476 1478 1486 1496 1502 1507 1511 1516
1431 1431 1428 1431 1433 1429 1435 1427 1442 1442 1448 1447 1448 1447 1454 1462 1463 1465 1462 1459 1466 1474 1485 1485 1497 1501 1496 1497 1499 1491 1489 1492 1487 1507 1505 1499 1471 1481 1482 1485 1490 1494 1500 1507 1512
1424 1424 1424 1417 1414 1418 1427 1433 1437 1438 1437 1438 1441 1444 1446 1450 1456 1453 1455 1459 1462 1464 1467 1479 1491 1498 1494 1497 1500 1492 1489 1485 1482 1495 1487 1489 1464 1482 1483 1485 1486 1490 1494 1500 1506
1421 1419 1414 1405 1404 1410 1419 1421 1426 1430 1431 1433 1432 1441 1443 1443 1441 1440 1451 1456 1457 1457 1459 1462 1474 1471 1456 1453 1461 1480 1474 1479 1479 1478 1467 1462 1461 1479 1478 1480 1484 1488 1489 1492 1498
1403 1404 1403 1400 1402 1399 1407 1411 1416 1419 1425 1427 1428 1425 1429 1440 1442 1435 1443 1456 1458 1456 1459 1459 1464 1462 1451 1453 1459 1458 1458 1469 1466 1449 1459 1441 1457 1462 1465 1471 1474 1477 1483 1489 1493
1393 1396 1401 1396 1395 1397 1397 1400 1405 1411 1415 1417 1418 1421 1423 1423 1425 1429 1435 1438 1440 1453 1456 1457 1453 1455 1452 1451 1458 1458 1455 1449 1449 1447 1447 1446 1449 1453 1459 1466 1471 1473 1477 1481 1485
1390 1391 1394 1391 1391 1395 1394 1397 1402 1406 1409 1409 1411 1417 1419 1417 1422 1425 1428 1428 1430 1435 1442 1450 1449 1457 1441 1447 1463 1466 1429 1446 1439 1438 1439 1440 1437 1453 1461 1462 1464 1467 1471 1474 1479
Wind_Speed
4 3 2 2 2 2 2 2 2 2 3 4 5 5 5 6 6 6 6 4 5 5 6 5 3 2 2 3 3 2 3 5 7 7 6 4 5 2 1 1 2 1 1 5 7
5 5 4 4 4 5 5 4 4 4 5 5 6 7 7 7 7 6 4 5 6 7 7 6 5 3 3 2 2 1 2 4 4 4 6 5 2 2 3 2 4 3 3 3 3
9 8 7 7 7 7 7 7 6 6 6 6 7 7 7 7 7 2 1 3 5 7 7 7 7 4 3 2 1 0 1 4 3 4 3 3 1 3 3 3 1 2 3 4 4
12 11 10 9 9 9 9 9 8 8 8 7 7 7 7 6 3 2 2 4 5 7 9 9 5 2 2 1 1 2 2 3 4 5 4 3 2 3 4 2 6 3 6 3 1
15 14 13 12 12 12 11 10 10 9 9 9 8 8 7 4 5 6 5 5 6 7 9 6 3 3 3 3 3 3 3 3 4 6 6 5 6 2 5 8 7 7 6 2 3
19 17 16 15 14 14 13 12 12 11 10 9 10 9 7 6 7 8 8 8 9 9 9 7 3 5 5 2 3 2 2 4 5 4 6 6 3 5 5 10 9 6 3 2 4
22 20 19 17 16 16 15 14 13 13 11 10 10 10 11 12 9 8 9 9 10 10 9 7 6 5 7 5 2 0 4 6 6 3 6 8 4 6 13 11 8 5 3 2 1
25 23 22 20 18 17 16 15 14 14 13 12 10 9 8 10 11 14 13 11 11 11 10 9 8 7 3 7 2 2 2 4 3 4 3 7 4 8 13 11 5 3 2 1 3
27 26 24 22 20 19 17 16 15 15 14 12 10 7 6 10 14 15 13 11 11 10 10 10 10 4 6 4 3 2 6 6 3 4 3 8 3 10 8 9 6 5 3 2 1
29 28 26 24 22 20 18 16 15 15 14 12 12 5 13 8 10 14 15 13 11 13 10 7 4 4 4 8 8 6 6 5 6 2 5 6 8 11 4 7 7 6 5 4 4
29 28 27 25 23 21 18 13 11 8 17 12 6 6 3 12 11 13 16 17 12 9 8 4 7 12 18 16 5 1 4 8 3 1 3 11 13 12 8 6 8 7 7 6 6
31 29 28 26 24 22 18 12 10 4 7 16 23 18 10 13 9 15 19 12 9 8 9 4 13 15 2 9 8 6 9 13 5 3 5 9 14 15 12 9 10 11 11 11 11
32 29 27 26 23 23 23 21 13 7 6 9 22 23 22 22 13 21 25 13 6 9 16 13 2 9 9 8 11 11 13 12 9 2 4 6 15 19 6 7 9 11 13 14 16
31 26 23 20 19 23 24 21 13 3 6 7 9 10 19 18 8 18 28 10 5 14 8 9 5 7 11 12 13 15 13 10 7 4 10 3 8 4 8 10 13 16 17 18 19
32 27 26 28 17 21 24 17 16 7 8 5 5 6 14 13 15 10 25 12 9 9 8 6 10 11 11 8 12 6 5 10 8 10 6 8 7 4 3 11 15 18 19 19 17
35 32 31 29 30 21 18 21 21 4 13 6 6 7 9 5 3 6 10 7 6 5 2 4 1 5 5 3 4 13 7 5 2 3 9 16 13 6 7 8 12 20 22 22 21
39 38 40 39 37 25 22 29 6 14 5 8 6 8 9 7 5 6 11 13 10 9 14 4 9 4 4 5 3 6 10 4 5 6 8 2 11 12 8 8 10 26 30 27 25
41 44 45 45 40 32 33 9 11 20 23 4 6 7 10 9 5 8 10 12 15 6 4 10 8 15 13 18 9 15 18 6 7 6 3 2 8 5 1 5 6 21 28 28 27
28 44 52 49 45 42 35 16 16 17 13 13 6 6 10 6 6 8 12 9 13 17 12 10 7 3 4 3 13 8 11 3 4 1 3 6 4 6 4 5 6 16 24 28 31
28 36 46 52 49 49 21 22 20 20 10 13 22 16 17 14 13 15 15 9 7 19 8 4 5 2 3 4 1 6 11 5 5 5 6 4 5 8 9 13 11 16 26 29 29
22 10 23 49 56 41 16 19 22 16 19 17 19 15 11 13 17 12 13 5 13 12 21 6 4 3 5 12 18 7 7 6 3 4 4 3 5 5 11 15 17 22 27 32 33
16 4 19 40 19 17 18 27 16 17 19 13 6 17 13 14 14 18 19 13 24 18 16 9 3 6 11 0 2 12 11 15 7 6 4 2 6 5 4 8 16 20 24 28 32
9 11 22 49 13 11 9 27 19 17 22 12 13 9 10 14 9 16 12 9 21 18 18 12 4 4 4 4 2 8 10 11 8 2 11 7 5 3 3 5 11 16 22 27 32
10 3 7 16 15 21 15 13 27 22 10 26 15 10 5 13 12 7 12 6 20 18 17 22 9 13 16 6 10 11 16 17 17 11 14 19 8 7 9 10 13 17 21 27 33
20 6 8 3 6 13 19 10 20 14 28 17 12 21 24 12 16 24 15 4 5 8 8 12 13 21 26 15 7 6 17 22 25 31 16 21 18 15 17 15 21 23 21 24 30
11 6 8 4 5 10 9 15 19 19 11 15 22 16 18 24 22 15 18 12 13 9 9 3 12 17 19 16 12 10 15 27 29 27 24 15 15 8 22 13 14 19 23 28 34
9 16 9 9 9 9 7 10 14 9 7 9 12 14 12 20 8 4 1 6 5 13 18 12 12 7 18 20 3 7 32 20 21 21 23 21 15 7 7 13 20 20 26 33 33
Wind_Direction
202 204 224 261 262 269 270 276 287 295 305 315 316 318 320 319 313 304 286 232 213 207 200 188 185 179 110 83 73 110 186 177 175 178 153 157 180 134 234 196 68 115 188 259 284
233 247 259 264 266 268 270 272 279 291 301 310 314 317 322 323 317 294 255 222 202 189 184 184 183 160 100 87 41 264 238 171 154 162 160 156 176 149 200 183 147 135 334 280 269
249 251 256 266 268 267 268 272 278 283 291 300 305 310 317 322 315 256 189 185 179 177 174 169 154 137 102 96 35 107 262 149 160 157 150 162 220 168 214 203 132 170 160 130 118
250 258 263 264 267 270 270 273 277 283 289 295 300 306 309 312 278 193 175 154 158 157 157 153 151 98 114 172 124 193 174 166 136 178 172 198 168 202 217 196 191 204 175 170 162
250 254 260 264 265 267 270 272 277 283 289 293 296 301 306 281 253 230 213 207 189 178 175 181 177 153 190 163 163 214 180 197 181 187 227 233 227 246 179 200 225 186 180 212 313
249 253 256 260 262 263 265 270 274 277 281 286 291 295 291 256 256 240 233 220 211 202 199 198 202 169 125 173 231 152 224 253 251 213 218 212 223 183 169 164 164 165 185 245 270
252 252 255 255 256 259 262 266 272 275 277 282 287 288 279 262 257 236 226 218 214 209 210 210 196 168 146 146 155 73 286 283 229 207 217 187 197 218 161 162 166 183 207 200 228
251 254 255 254 253 254 259 265 269 271 273 277 282 284 259 255 244 236 227 218 213 212 210 197 176 157 118 133 91 233 250 256 133 165 179 196 186 147 166 166 171 171 157 65 8
250 252 252 252 251 250 253 261 265 267 271 274 276 260 259 244 229 227 218 213 202 193 184 178 166 130 137 190 211 216 256 220 274 191 162 217 144 163 181 213 191 171 152 150 97
246 249 250 249 248 248 251 255 261 265 265 269 252 256 236 224 212 212 204 193 174 169 147 161 134 180 168 193 236 208 221 223 234 171 213 220 241 173 187 199 194 175 155 137 126
244 245 246 246 246 246 247 248 260 259 231 215 212 201 191 201 193 194 191 179 165 167 186 161 205 215 214 214 238 178 223 248 185 162 253 245 257 206 210 197 191 179 166 146 137
242 240 242 243 243 243 235 214 216 212 286 242 237 229 227 195 183 192 183 175 175 191 138 159 229 230 129 193 201 220 243 248 266 199 227 253 254 257 204 218 206 186 172 159 144
246 238 236 238 236 234 233 227 232 242 266 250 232 229 221 216 213 196 186 191 187 169 194 208 173 186 174 170 196 225 227 237 256 143 218 277 263 246 205 201 188 181 173 164 158
240 238 228 218 226 230 231 219 210 208 267 227 210 222 205 200 223 205 191 176 183 209 181 238 167 154 186 210 201 235 219 235 236 238 262 218 281 242 208 205 198 186 181 173 166
232 222 219 213 215 213 227 205 179 146 271 124 147 182 169 183 143 182 181 197 184 169 180 203 180 190 204 210 187 245 148 211 224 239 269 209 263 236 178 225 206 194 186 179 171
227 218 219 213 214 216 201 167 157 179 240 170 138 161 153 172 128 115 168 166 143 138 263 273 97 214 212 96 180 134 101 79 105 206 250 231 217 215 204 217 178 188 189 182 177
222 216 215 212 207 202 175 156 166 221 124 179 179 174 175 155 152 169 176 184 180 183 224 214 218 183 181 140 88 184 164 200 225 210 247 142 209 243 212 173 186 185 186 184 181
236 217 215 219 214 191 175 192 209 224 215 101 115 131 184 153 181 164 164 196 216 210 142 201 228 191 193 215 183 195 189 197 216 205 206 142 226 242 334 130 142 187 181 178 181
239 235 215 211 209 190 176 200 220 205 190 154 131 165 197 193 171 169 200 216 202 197 200 193 242 177 193 143 173 180 212 185 104 171 260 204 240 238 167 184 168 168 178 183 186
249 226 212 210 208 192 190 207 224 212 143 177 206 188 185 185 175 190 178 188 213 198 202 202 245 249 145 134 228 201 146 176 219 216 232 206 247 225 202 203 179 181 190 189 190
250 259 213 209 201 191 207 216 221 215 199 182 211 204 206 179 195 195 201 171 206 200 193 146 222 137 148 209 190 169 188 213 221 219 227 256 233 217 197 189 188 194 194 192 192
237 240 213 200 195 199 205 210 222 202 203 220 225 212 191 184 194 205 204 214 192 153 179 192 132 199 205 55 296 233 217 195 207 190 238 296 250 161 163 176 194 193 193 196 198
227 239 216 186 205 199 211 220 222 206 206 208 214 204 191 185 209 207 202 211 170 169 169 168 187 229 248 210 187 219 203 223 230 55 209 197 227 167 175 218 203 193 190 194 198
206 235 244 214 206 199 195 212 214 224 221 215 226 198 169 216 228 196 209 196 194 199 186 163 169 205 227 229 156 205 205 202 203 228 225 232 233 198 201 202 201 203 198 196 198
189 206 208 201 223 189 194 190 214 209 217 205 214 220 208 224 232 234 223 168 197 214 195 184 216 216 237 249 213 220 205 198 209 221 213 243 226 198 191 196 197 202 195 191 198
178 180 192 229 197 222 175 203 211 216 187 212 226 215 229 217 211 218 226 204 211 178 187 220 236 220 239 226 224 235 229 208 213 222 234 241 232 194 196 181 186 194 188 196 202
228 205 180 195 206 207 221 205 195 209 211 200 206 224 213 232 235 175 123 210 184 193 188 183 212 185 233 225 191 268 233 214 217 222 221 220 236 138 171 193 200 194 196 203 203